This demonstration page uses our WeatherBlox Daily Observations layout. Learn more.

Left ArrowRight Arrow

40.92945, -100.16068

Hourly Observations for June 16, 2021

Temp ( °F °C ) Dew Point ( °F °C ) Humidity (%) Winds ( mph kmh ) Pressure ( in mb ) Visibility ( mi km ) Precip ( " mm )
12:15 am 00:15 Clear 79 26.1 65 18.2 62 62 SE 6 9 29.90 1013 10 16 N/A
12:35 am 00:35 Clear 79 26 64 17.8 61 61 SE 7 11 29.90 1013 10 16 N/A
12:55 am 00:55 Clear 76 24.6 64 18 67 67 SE 5 7 29.91 1013 10 16 N/A
1:15 am 01:15 Clear 76 24.3 64 18 68 68 SE 5 7 29.92 1013 10 16 N/A
1:35 am 01:35 Clear 75 23.9 64 18 70 70 SE 3 6 29.92 1013 10 16 N/A
1:55 am 01:55 Clear 75 23.8 64 17.5 68 68 SE 7 11 29.92 1013 10 16 N/A
2:15 am 02:15 Clear 74 23.6 64 17.5 69 69 SSE 6 9 29.91 1013 10 16 N/A
2:35 am 02:35 Clear 74 23.5 63 17.3 68 68 SSE 7 11 29.91 1013 10 16 N/A
2:55 am 02:55 Clear 73 23 63 17 69 69 SSE 6 9 29.91 1013 10 16 N/A
3:15 am 03:15 Clear 73 22.8 63 17 70 70 SSE 6 9 29.91 1013 10 16 N/A
3:35 am 03:35 Clear 73 22.5 62 16.7 70 70 S 6 9 29.91 1013 10 16 N/A
3:55 am 03:55 Clear 72 22.3 62 16.6 70 70 SE 5 7 29.91 1013 10 16 N/A
4:15 am 04:15 Clear 71 21.8 62 16.5 72 72 SE 5 7 29.91 1013 10 16 N/A
4:35 am 04:35 Clear 71 21.6 62 16.6 73 73 ESE 5 7 29.92 1013 10 16 N/A
4:55 am 04:55 Clear 71 21.7 62 16.5 72 72 SE 3 6 29.92 1013 10 16 N/A
5:15 am 05:15 Clear 71 21.7 61 16.3 72 72 SE 3 6 29.92 1013 10 16 N/A
5:35 am 05:35 Clear 70 21.1 61 16.2 74 74 SSE 5 7 29.92 1013 10 16 N/A
5:55 am 05:55 Clear 70 21.1 61 16.1 73 73 SSE 3 6 29.92 1013 10 16 N/A
6:15 am 06:15 Sunny 70 21.3 61 16 72 72 SSE 5 7 29.92 1013 10 16 N/A
6:35 am 06:35 Sunny 71 21.4 61 16.1 72 72 SSE 5 7 29.92 1013 10 16 N/A
6:55 am 06:55 Sunny 71 21.7 61 16.2 71 71 N N/A 29.92 1013 10 16 N/A
7:15 am 07:15 Sunny 74 23.5 61 16.2 64 64 S 3 6 29.90 1013 10 16 N/A
7:35 am 07:35 Sunny 77 25 61 16 57 57 N N/A 29.89 1012 10 16 N/A
7:55 am 07:55 Sunny 78 25.6 61 16.3 57 57 N N/A 29.88 1012 10 16 N/A
8:15 am 08:15 Sunny 80 26.4 62 16.8 56 56 N N/A 29.88 1012 10 16 N/A
8:35 am 08:35 Sunny 81 27.3 61 16.3 51 51 SSW 6 9 29.87 1012 10 16 N/A
8:55 am 08:55 Sunny 83 28.1 62 16.6 50 50 SSW 8 13 29.86 1011 10 16 N/A
9:15 am 09:15 Sunny 84 29 63 17.1 49 49 SSW 8 13 29.86 1011 10 16 N/A
9:35 am 09:35 Sunny 86 29.8 62 16.9 46 46 SSW 12 19 29.85 1011 10 16 N/A
9:55 am 09:55 Sunny 86 30.2 62 16.8 44 44 S 15 24 29.84 1010 10 16 N/A
10:15 am 10:15 Sunny 87 30.6 63 17.4 45 45 SSW 12 19 29.84 1011 10 16 N/A
10:35 am 10:35 Sunny 89 31.8 63 17.4 42 42 SSW 14 22 29.82 1010 10 16 N/A
10:55 am 10:55 Sunny 91 32.7 64 17.5 40 40 SW 9 15 29.81 1009 10 16 N/A
11:15 am 11:15 Partly Cloudy 92 33.4 64 17.8 39 39 S 10 17 29.80 1009 10 16 N/A
11:35 am 11:35 Sunny 93 34.1 64 17.7 38 38 S 14 22 29.80 1009 10 16 N/A
11:55 am 11:55 Sunny 94 34.6 62 16.9 35 35 SSW 15 24 29.79 1009 10 16 N/A
12:15 pm 12:15 Sunny 96 35.7 61 16.3 31 31 SSW 12 19 29.77 1008 10 16 N/A
12:35 pm 12:35 Sunny 98 36.8 60 15.4 28 28 SSW 15 24 29.77 1008 10 16 N/A
12:55 pm 12:55 Sunny 99 37.1 58 14.7 26 26 S 17 28 29.76 1008 10 16 N/A
1:15 pm 13:15 Sunny 99 37.4 57 13.8 24 24 SSW 17 28 29.75 1007 10 16 N/A
1:35 pm 13:35 Sunny 100 37.7 58 14.5 25 25 S 15 24 29.74 1007 10 16 N/A
1:55 pm 13:55 Sunny 100 38 56 13.4 23 23 SSW 18 30 29.74 1007 10 16 N/A
2:15 pm 14:15 Sunny 100 38 56 13.4 23 23 S 20 31 29.73 1007 10 16 N/A
2:35 pm 14:35 Sunny 101 38.2 55 13 22 22 SSW 16 26 29.73 1007 10 16 N/A
2:55 pm 14:55 Sunny 101 38.6 56 13.5 22 22 SSW 17 28 29.72 1007 10 16 N/A
3:15 pm 15:15 Sunny 102 39 57 14 23 23 S 14 22 29.72 1006 10 16 N/A
3:35 pm 15:35 Sunny 102 39.1 56 13.1 21 21 SSW 15 24 29.71 1006 10 16 N/A
3:55 pm 15:55 Sunny 102 39.1 56 13.4 22 22 S 16 26 29.71 1006 10 16 N/A
4:15 pm 16:15 Sunny 102 39.1 56 13.1 21 21 S 14 22 29.70 1006 10 16 N/A
4:35 pm 16:35 Sunny 103 39.3 56 13.2 21 21 SSW 17 28 29.69 1005 10 16 N/A
4:55 pm 16:55 Sunny 103 39.7 57 13.7 21 21 S 18 30 29.68 1005 10 16 N/A
5:15 pm 17:15 Sunny 103 39.5 57 13.7 21 21 S 16 26 29.69 1005 10 16 N/A
5:35 pm 17:35 Sunny 102 39 56 13.5 22 22 S 15 24 29.68 1005 10 16 N/A
5:55 pm 17:55 Sunny 102 39 57 14.1 23 23 S 16 26 29.68 1005 10 16 N/A
6:15 pm 18:15 Sunny 102 38.8 58 14.3 23 23 S 13 20 29.67 1005 10 16 N/A
6:35 pm 18:35 Sunny 101 38.5 57 14.1 23 23 S 14 22 29.67 1005 10 16 N/A
6:55 pm 18:55 Sunny 100 37.9 59 14.8 25 25 S 10 17 29.68 1005 10 16 N/A
7:15 pm 19:15 Sunny 99 37.2 60 15.5 27 27 S 10 17 29.67 1005 10 16 N/A
7:35 pm 19:35 Sunny 96 35.8 61 16.3 31 31 SSE 10 17 29.68 1005 10 16 N/A
7:55 pm 19:55 Sunny 92 33.3 63 17.2 38 38 SSE 7 11 29.71 1006 10 16 N/A
8:15 pm 20:15 Sunny 89 31.9 63 17 41 41 S 9 15 29.72 1007 10 16 N/A
8:35 pm 20:35 Sunny 89 31.6 61 16 39 39 SSE 8 13 29.73 1007 10 16 N/A
8:55 pm 20:55 Sunny 87 30.8 61 16 41 41 S 8 13 29.74 1007 10 16 N/A
9:15 pm 21:15 Clear 87 30.5 61 15.9 41 41 S 9 15 29.75 1007 10 16 N/A
9:35 pm 21:35 Clear 87 30.3 60 15.6 41 41 S 10 17 29.75 1007 10 16 N/A
9:55 pm 21:55 Clear 86 30 60 15.5 41 41 S 9 15 29.76 1008 10 16 N/A
10:15 pm 22:15 Clear 86 29.9 60 15.5 42 42 S 9 15 29.76 1008 10 16 N/A
10:35 pm 22:35 Clear 85 29.7 60 15.5 42 42 S 13 20 29.76 1008 10 16 N/A
10:55 pm 22:55 Clear 85 29.2 60 15.6 44 44 S 10 17 29.77 1008 10 16 N/A
11:15 pm 23:15 Clear 84 29.1 60 15.4 43 43 SSW 9 15 29.79 1009 10 16 N/A
11:35 pm 23:35 Clear 83 28.5 60 15.6 46 46 S 9 15 29.78 1009 10 16 N/A
11:55 pm 23:55 Clear 82 27.8 60 15.7 48 48 SSW 7 11 29.79 1009 10 16 N/A

Powered by AerisWeather